Date String (YYYY-MM-DD hh:mm:ss) UTC,Instrument flags,Ambient pressure (hPa),Sample flow (lpm),Bypass flow (lpm),Sample temperature (°C),Ambient temperature (°C),ASC tube jacket temperature (°C),LED temperature (°C),Box temperature (°C),Sample RH (%),Span deviation,Mass concentration (μg/m³),Mass concentration (μg/m³),Mass concentration (μg/m³)
DateTimeUTC,F1_M11,P_M11,Q1_M11,Q2_M11,T1_M11,T2_M11,T3_M11,T4_M11,T5_M11,U1_M11,ZSPAN_M11,X0_M11,X2_M11,X1_M11
2023-04-05 20:00:00,,0828.5,5.01,0.00,23.2,21.7,00.0,31.5,24.8,12.5,0000.5,0011.90,0006.41,0006.11
2023-04-05 20:01:00,,0828.5,4.99,0.00,23.2,21.7,00.0,31.5,24.8,12.1,0000.9,0011.91,0006.36,0006.08
2023-04-05 20:02:00,,0828.5,4.99,0.00,23.2,21.7,00.0,31.5,24.8,11.7,0000.7,0011.64,0006.33,0006.05
2023-04-05 20:03:00,,0828.6,5.01,0.00,23.2,21.7,00.0,31.5,24.8,12.3,0000.6,0011.31,0006.32,0006.01
2023-04-05 20:04:00,,0828.6,5.01,0.00,23.2,21.7,00.0,31.5,24.8,11.7,0000.7,0010.41,0006.29,0005.98
2023-04-05 20:05:00,,0828.5,5.00,0.00,23.2,21.7,00.0,31.5,24.8,11.9,-000.0,0010.16,0006.26,0005.96
2023-04-05 20:06:00,,0828.6,5.00,0.00,23.2,21.7,00.0,31.5,24.8,11.1,0000.0,0009.98,0006.22,0005.93
2023-04-05 20:07:00,,0828.6,5.00,0.00,23.2,21.7,00.0,31.5,24.8,11.1,0000.1,0009.49,0006.22,0005.92
2023-04-05 20:08:00,,0828.6,5.00,0.00,23.2,21.7,00.0,31.5,24.8,11.2,0000.1,0009.32,0006.20,0005.90
2023-04-05 20:09:00,,0828.6,5.00,0.00,23.2,21.7,00.0,31.5,24.8,11.2,-000.2,0009.44,0006.17,0005.90
2023-04-05 20:10:00,,0828.5,5.01,0.00,23.2,21.7,00.0,31.5,24.8,11.8,-000.4,0009.64,0006.19,0005.89
2023-04-05 20:11:00,,0828.6,5.00,0.00,23.2,21.7,00.0,31.5,24.8,12.0,-000.4,0009.74,0006.22,0005.88
2023-04-05 20:12:00,,0828.6,5.00,0.00,23.2,21.7,00.0,31.5,24.8,12.0,-000.7,0009.76,0006.24,0005.88
2023-04-05 20:13:00,,0828.5,4.99,0.00,23.2,21.7,00.0,31.5,24.8,11.1,-001.0,0009.95,0006.25,0005.88
2023-04-05 20:14:00,,0828.5,5.00,0.00,23.2,21.7,00.0,31.5,24.8,11.2,-001.1,0009.64,0006.23,0005.87
2023-04-05 20:15:00,,0828.4,5.01,0.00,23.2,21.6,00.0,31.5,24.8,11.2,-000.8,0009.48,0006.25,0005.86
2023-04-05 20:16:00,,0828.4,5.00,0.00,23.2,21.6,00.0,31.5,24.8,12.0,-000.1,0009.73,0006.26,0005.83
2023-04-05 20:17:00,,0828.4,5.00,0.00,23.2,21.6,00.0,31.5,24.8,12.5,0000.5,0010.02,0006.31,0005.83
2023-04-05 20:18:00,,0828.4,4.99,0.00,23.2,21.6,00.0,31.5,24.8,11.7,0000.3,0010.07,0006.32,0005.82
2023-04-05 20:19:00,,0828.4,4.99,0.00,23.2,21.6,00.0,31.5,24.7,12.1,0000.7,0010.15,0006.32,0005.82
2023-04-05 20:20:00,,0828.4,5.00,0.00,23.1,21.5,00.0,31.5,24.7,11.7,0001.1,0010.16,0006.31,0005.81
2023-04-05 20:21:00,,0828.5,5.01,0.00,23.2,21.7,00.0,31.4,24.9,11.6,0001.4,0010.01,0006.28,0005.79
2023-04-05 20:22:00,,0828.6,5.00,0.00,23.3,22.5,00.0,31.4,25.1,11.3,0001.6,0010.00,0006.22,0005.76
2023-04-05 20:23:00,,0828.6,5.00,0.00,23.4,23.4,00.0,31.4,25.4,11.3,0002.1,0010.18,0006.19,0005.73
2023-04-05 20:24:00,,0828.5,4.99,0.00,23.4,23.5,00.0,31.5,25.3,11.2,0002.3,0010.78,0006.15,0005.71
2023-04-05 20:25:00,,0828.5,4.98,0.00,23.5,23.4,00.0,31.6,25.2,11.1,0002.6,0010.76,0006.13,0005.70
2023-04-05 20:26:00,,0828.5,4.99,0.00,23.5,23.2,00.0,31.6,25.2,11.1,0002.8,0010.85,0006.09,0005.67
2023-04-05 20:27:00,,0828.5,5.02,0.00,23.5,23.0,00.0,31.6,25.1,11.3,0002.5,0010.77,0006.05,0005.66
2023-04-05 20:28:00,,0828.5,5.00,0.00,23.5,22.8,00.0,31.7,25.1,11.8,0002.1,0010.56,0005.99,0005.63
2023-04-05 20:29:00,,0828.4,4.98,0.00,23.5,22.7,00.0,31.7,25.1,12.1,0002.1,0010.36,0005.94,0005.60
2023-04-05 20:30:00,,0828.4,4.99,0.00,23.5,22.5,00.0,31.7,25.1,11.9,0001.7,0010.26,0005.91,0005.56
2023-04-05 20:31:00,,0828.4,5.00,0.00,23.5,22.4,00.0,31.7,25.1,11.8,0001.2,0010.14,0005.89,0005.53
2023-04-05 20:32:00,,0828.5,5.01,0.00,23.5,22.3,00.0,31.7,25.1,11.1,0001.2,0010.10,0005.88,0005.50
2023-04-05 20:33:00,,0828.4,5.00,0.00,23.5,22.3,00.0,31.7,25.1,11.6,0001.6,0010.01,0005.86,0005.47
2023-04-05 20:34:00,,0828.5,5.00,0.00,23.5,22.2,00.0,31.7,25.1,11.8,0001.2,0010.40,0005.79,0005.41
2023-04-05 20:35:00,,0828.5,4.99,0.00,23.5,22.2,00.0,31.7,25.0,12.4,0001.2,0009.65,0005.78,0005.37
2023-04-05 20:36:00,,0828.5,4.99,0.00,23.5,22.1,00.0,31.7,25.0,12.3,0000.9,0009.94,0005.79,0005.33
2023-04-05 20:37:00,,0828.5,5.00,0.00,23.5,22.1,00.0,31.7,25.0,11.9,0000.1,0010.90,0005.74,0005.30
2023-04-05 20:38:00,,0828.5,5.01,0.00,23.4,22.0,00.0,31.8,25.0,11.9,0000.4,0011.48,0005.70,0005.25
2023-04-05 20:39:00,,0828.5,5.01,0.00,23.4,22.0,00.0,31.7,25.0,11.7,0000.6,0011.54,0005.67,0005.23
2023-04-05 20:40:00,,0828.5,5.01,0.00,23.4,22.0,00.0,31.7,25.0,11.7,0000.5,0012.09,0005.64,0005.21
2023-04-05 20:41:00,,0828.5,5.00,0.00,23.4,22.0,00.0,31.7,25.0,11.7,0000.2,0013.12,0005.63,0005.17
2023-04-05 20:42:00,,0828.5,5.00,0.00,23.4,21.9,00.0,31.7,25.0,11.4,0000.4,0013.58,0005.58,0005.11
2023-04-05 20:43:00,,0828.6,5.00,0.00,23.4,21.9,00.0,31.7,25.0,11.2,0000.3,0013.52,0005.53,0005.06
2023-04-05 20:44:00,,0828.5,5.00,0.00,23.4,21.9,00.0,31.7,25.0,11.4,-000.5,0013.42,0005.46,0005.03
2023-04-05 20:45:00,,0828.5,5.00,0.00,23.4,21.9,00.0,31.7,25.0,11.6,-000.1,0012.73,0005.43,0005.02
2023-04-05 20:46:00,,0828.5,5.00,0.00,23.4,21.9,00.0,31.7,25.0,11.6,-000.1,0013.66,0005.40,0005.01
2023-04-05 20:47:00,,0828.6,5.00,0.00,23.4,21.9,00.0,31.7,24.9,11.7,-000.2,0014.78,0005.34,0004.99
2023-04-05 20:48:00,,0828.6,5.00,0.00,23.4,21.9,00.0,31.7,25.0,11.6,0000.5,0014.48,0005.31,0004.97
2023-04-05 20:49:00,,0828.5,5.00,0.00,23.4,21.9,00.0,31.7,25.0,12.0,0000.5,0015.67,0005.31,0004.96
2023-04-05 20:50:00,,0828.6,5.00,0.00,23.4,21.9,00.0,31.7,25.0,11.8,0000.4,0019.08,0005.34,0004.95
2023-04-05 20:51:00,,0828.5,5.00,0.00,23.4,21.9,00.0,31.7,24.9,11.7,0000.5,0018.54,0005.34,0004.93
2023-04-05 20:52:00,,0828.6,5.00,0.00,23.4,21.9,00.0,31.7,25.0,11.9,0000.8,0017.49,0005.32,0004.92
2023-04-05 20:53:00,,0828.6,5.01,0.00,23.4,21.8,00.0,31.7,25.0,11.8,0000.6,0017.07,0005.32,0004.91
2023-04-05 20:54:00,,0828.6,5.01,0.00,23.4,21.8,00.0,31.7,24.9,11.7,0000.8,0017.75,0005.30,0004.88
2023-04-05 20:55:00,,0828.6,5.01,0.00,23.4,21.8,00.0,31.7,24.9,12.0,0000.9,0018.07,0005.30,0004.84
2023-04-05 20:56:00,,0828.6,5.00,0.00,23.4,21.8,00.0,31.7,24.9,12.2,0000.7,0018.17,0005.26,0004.80
2023-04-05 20:57:00,,0828.6,5.00,0.00,23.4,21.8,00.0,31.7,25.0,11.8,0000.4,0017.31,0005.17,0004.72
2023-04-05 20:58:00,,0828.6,5.00,0.00,23.4,21.8,00.0,31.7,24.9,10.6,0000.8,0015.56,0005.03,0004.59
2023-04-05 20:59:00,,0828.6,5.00,0.00,23.4,21.8,00.0,31.7,24.9,10.5,0000.6,,,
